Showing default

LEMUR 2 ZACHARY, 42845

Orbit data source: Space-Track

LEMUR 2 ZACHARY, 42845 is a payload satellite owned by Spire (US) in SSO that was launched on Fri, 14 Jul 2017 UTC via a SOYUZ-2-1A launch vehicle from the Tyuratam Missile And Space Complex (TTMTR). Payload-class satellites include a variety of spacecraft equipped with specific instruments for various scientific and technological missions. These include communications satellites like Starlink; space stations such as the ISS; scientific satellites like the Hubble; Earth observation satellites from companies like Planet Labs, Umbra, and HawkEye 360; GPS; miniature CubeSats for education and research; and military/defense satellites.

Loading next visibility...
Identifier
42845, 2017-042W
Orbit
SSO
Country
Flag of USUS
Related business
Manufacturer
Spire/Glasgow
Mission
Operational Commercial Com/MetRO
Bus & Motor
CUBESAT 3U, Unknown motor
Mass
4 kg wet, 4 kg dry
Launch date (UTC)
2017-07-14 (9 years ago)
Launch vehicle
SOYUZ-2-1A
Launch site
Tyuratam Missile And Space Complex (TTMTR)
Object type
Payload
Rocket body
Debris
Shape & HBR
Box, 0.4 m
Radar Cross Section
0.093 m², Medium (>0.1 m² and < 1m²)

Expand to show TLE details & history
Last TLE update: 6 hours ago

TLE from 6 hours ago
0 LEMUR 2 ZACHARY
1 42845U 17042W   26264.28740410  .00050379  00000-0  63315-3 0  9998
2 42845  97.3528  98.5776 0002801  31.9975 328.1451 15.59538443504130
Epoch: 2026-09-21T06:53Z
TLE epoch observation values (Epoch: 2026-09-21T06:53:51.714Z)
Latitude
-0.00003°
Longitude
-5.05727°
Altitude
390.527 km
Speed
7.677 km/s
True Right ascension
06h 34m 18s
True Declination
0° 00' 00"
Sunlit
Object was in daylight at epoch
Visualization orbit readout
Latitude
Unknown
Longitude
Unknown
Altitude
Unknown
Speed
Unknown
Apparent Right ascension
Unknown
Apparent Declination
Unknown
Sunlit
N/A
Visualization observer readout
Local Sidereal Time
05:59:50
Azimuth
Unknown
Elevation
Unknown
Doppler factor
Unknown
Orbital elements
Apogee altitude
387.798 km
Perigee altitude
384.008 km
Semi-major axis
6,764.04 km
Eccentricity
0.00028
Inclination
97.3528°
RAAN
98.5776°
Arg. of periapsis
31.9975°
True anomaly
328.12816°
Mean anomaly
328.1451°
Eccentric anomaly
328.13663°
Mean motion
3.90152 °/min
Orbital period
92.27 mins
BSTAR
0.00063315
Loading maneuver chart data...
Computing Atmospheric mass density...

Documentation

Showing up to 5 results
|